Regional Weather Roundup
Issued by NWS

Home | Current Version | Previous Version | Text Only | Print | Product List | Glossary On
Versions: 1 2 3 4 5 6 7 8 9 10 11 12 13 14 15 16 17 18 19 20 21 22 23 24 25 26 27 28 29 30 31 32 33 34 35 36 37 38 39 40 41 42 43 44 45 46 47 48 49 50
000
ASUS46 KLOX 251612
RWRCA

SOUTHERN CALIFORNIA WEATHER ROUNDUP
NATIONAL WEATHER SERVICE OXNARD CALIFORNIA
900 AM PDT SAT APR 25 2015

NOTE: "FAIR" INDICATES FEW OR NO CLOUDS BELOW 12,000 FEET WITH NO
SIGNIFICANT WEATHER AND/OR OBSTRUCTIONS TO VISIBILITY.

  -  STATIONS PRECEEDED BY AN ASTERISK (*) ARE NOT NWS OR FAA
     STATIONS AND ARE NOT SUBJECT TO NWS AND FAA QUALITY CONTROL.

CAZ041-042-087-251700-
LA AND ORANGE COUNTY COASTAL AREAS


CITY           SKY/WX    TMP DP  RH WIND       PRES   REMARKS
L.A. DOWNTOWN  CLOUDY    60  52  74 CALM      29.99S
L.A. AIRPORT   PTSUNNY   59  52  77 W9        29.99S
LONG BEACH     CLOUDY    61  52  72 NW7       30.00R

CITY           SKY/WX    TMP DP  RH WIND       PRES   REMARKS
AVALON           N/A     63 N/A N/A MISG        N/A
FULLERTON      CLOUDY    62  51  67 W5        29.99R
*GETTY CENTER    N/A    N/A N/A N/A S6          N/A
HAWTHORNE      PTSUNNY   61  51  70 SW8       30.00R
*LEO CARRILLO    N/A     61  50  68 SW2         N/A
*LOS ALAMITOS  CLOUDY    61  53  74 SW5       30.00R
*REDONDO BEACH   N/A     62  53  71 CALM      29.99S
SANTA ANA      CLOUDY    61  50  67 CALM      29.99S
STA MONICA APT MOSUNNY   61  51  70 S6        29.99S
TORRANCE       MOSUNNY   63  54  72 W12       30.01R
*UCLA            N/A     61  50  67 S7        29.96S

$$

CAZ547-548-048-251700-
LA COUNTY VALLEYS AND INLAND EMPIRE


CITY           SKY/WX    TMP DP  RH WIND       PRES   REMARKS
BURBANK        CLOUDY    58  49  72 SW7       29.98S
VAN NUYS       PTSUNNY   59  48  67 VRB3      29.97F

CITY           SKY/WX    TMP DP  RH WIND       PRES   REMARKS
CORONA AIRPORT PTSUNNY   59  51  74 CALM      29.99S
*CHATSWORTH      N/A     59  48  67 NE2       29.98F
CHINO          PTSUNNY   60  50  69 W10       29.99S
*CLAREMONT       N/A     55  49  80 W6          N/A
MARCH AFB      CLOUDY    57  50  77 SE2       29.97S
*NORTHRIDGE      N/A     59  46  63 SE1         N/A
ONTARIO        CLOUDY    57  48  72 W9        29.98S
*PASADENA        N/A     59  52  77 CALM        N/A
POMONA         CLOUDY    55  48  76 W12       30.01R
RIVERSIDE      CLOUDY    58  50  75 W5        29.99R
SAN BERNARDINO CLOUDY    55  48  76 CALM      29.99S
*SAN RAFAEL HI   N/A     55  51  88 E2          N/A
*SAUGUS          N/A     50  49  97 CALM        N/A
*WHITEMAN AP   NOT AVBL
*WHITTIER HILL   N/A     59  54  82 SW5         N/A
*WOODLAND HILL   N/A     61  48  63 NW2         N/A

$$

CAZ054-055-251700-
LA AND SAN BERNARDINO COUNTY MOUNTAINS


CITY           SKY/WX    TMP DP  RH WIND       PRES   REMARKS
*ACTON           N/A     51  45  79 S3          N/A
*BIG BEAR AIRP CLOUDY    41  32  70 W15       29.95F WCI  33
*BIG PINES       N/A     42  33  70 SW2         N/A
MT WILSON NWS    N/A     41  41 100 MISG        N/A
SANDBERG       PTSUNNY   48  35  60 SW9       29.96F

$$

CAZ028-029-059-060-099-251700-
ANTELOPE VALLEY AND SURROUNDING AREAS


CITY           SKY/WX    TMP DP  RH WIND       PRES   REMARKS
LANCASTER      CLOUDY    57  37  47 W17       29.94F
PALMDALE       SUNNY     55  42  61 W20       29.94S
*POPPY PARK      N/A     59  42  54 SW14G25     N/A

CITY           SKY/WX    TMP DP  RH WIND       PRES   REMARKS
29 PALMS       CLOUDY    58  40  51 W14       29.93F
BARSTOW/DAGGET CLOUDY    61  34  36 SW31G44   29.84F
BISHOP         CLOUDY    55  30  38 N15G22    29.76R
CHINA LAKE     PTSUNNY   57  32  38 SW23G38   29.78F
EDWARDS AFB    MOSUNNY   57  32  38 W26G32    29.88F
MOJAVE         FAIR      52  36  54 W13G26    29.93S
NEEDLES        PTSUNNY   70  36  28 SW15      29.83R
VICTORVILLE    CLOUDY    55  39  54 W8G18     29.92S

$$

CAZ039-040-251700-
VENTURA AND SANTA BARBARA COUNTY COAST


CITY           SKY/WX    TMP DP  RH WIND       PRES   REMARKS
CAMARILLO      PTSUNNY   60  50  69 W6        29.98S
OXNARD AIRPORT CLOUDY    59  51  75 SW6       29.98F
*POINT MUGU    PTSUNNY   62  51  67 W6        29.99F
SBA APT/GOLETA CLOUDY    62  50  64 W15       29.97S
*SANTA BARBARA   N/A     61  48  62 E2        30.05S
*VENTURA         N/A     60  51  74 E3        30.02S

$$

CAZ044-045-251700-
VENTURA COUNTY VALLEYS


CITY           SKY/WX    TMP DP  RH WIND       PRES   REMARKS
*SIMI VALLEY     N/A     56  51  82 CALM      29.95F
*OJAI            N/A     57  52  83 CALM      29.93F
*FILLMORE        N/A     57  53  87 CALM      29.88F

$$

CAZ053-251700-
VENTURA COUNTY MOUNTAINS


CITY           SKY/WX    TMP DP  RH WIND       PRES   REMARKS
*LOCKWOOD VLY    N/A     41  37  87 NW6         N/A
*ROSE VALLEY     N/A     54  45  71 MISG        N/A

$$

CAZ034-035-036-251700-
CENTRAL COAST AND SANTA YNEZ VALLEY


CITY           SKY/WX    TMP DP  RH WIND       PRES   REMARKS
SAN LUIS OBISP LGT RAIN  51  50  96 SE9       29.98F FOG
SANTA MARIA    LGT RAIN  57  54  89 SW7       30.00F FOG

CITY           SKY/WX    TMP DP  RH WIND       PRES   REMARKS
*CAL POLY SLO    N/A     52  50  93 SE3         N/A
*LOMPOC        CLOUDY    55  50  82 CALM      30.02S
*PISMO BEACH     N/A     53  51  92 E1        29.99F
*SANTA YNEZ    HVY RAIN  52  46  82 W3        30.00F

$$

CAZ037-038-051-251700-
SAN LUIS OBISPO COUNTY INTERIOR AND CUYAMA VALLEY


CITY           SKY/WX    TMP DP  RH WIND       PRES   REMARKS
*CUYAMA          N/A     51  41  68 CALM      29.93F
PASO ROBLES    CLOUDY    56  51  84 SW9       29.94F

$$

CAZ032-033-061-251700-
SOUTHERN DESERTS


CITY           SKY/WX    TMP DP  RH WIND       PRES   REMARKS
BLYTHE         SUNNY     66  47  50 S5        29.86S
IMPERIAL       SUNNY     70  47  43 W14       29.88S
PALM SPRINGS   CLOUDY    66  45  46 S7        29.87F
THERMAL        CLOUDY    68  46  45 NW7       29.85F

$$

ELSEWHERE ACROSS THE WESTERN UNITED STATES AND MEXICO


CITY           SKY/WX    TMP DP  RH WIND       PRES   REMARKS
DENVER, CO     PTSUNNY   61  25  25 SW7       29.74S
GRAND CANYON,  CLOUDY    45  37  73 SW16G24   29.93F
HONOLULU, HI   PTCLDY    70  68  94 SE6       29.96R
KAHULUI, MAUI  PTCLDY    66  63  88 SE6       29.97R
LAKE TAHOE, CA LGT SNOW  36  30  79 SW5       29.83R WCI  32
LAS VEGAS, NV  CLOUDY    62  33  33 S18G28    29.73F
MAMMOTH LAKES, LGT SNOW  34  34 100 W9        29.84S WCI  26
MEXICO CITY, M MOSUNNY   72  50  46 CALM      30.34S
PHOENIX, AZ    MOSUNNY   69  44  40 SE6       29.90F
PORTLAND, OR   MOSUNNY   49  45  86 NE3       29.99R
RENO, NV       CLOUDY    40  37  89 N16       29.85R WCI  31
SALT LAKE CITY PTSUNNY   49  37  63 SE6       29.80F
SAN DIEGO, CA  CLOUDY    61  49  64 SW8       30.03R
SAN FRANCISCO, CLOUDY    52  49  89 W23       29.96S
SAN JOSE, CA   PTSUNNY   57  49  74 W13       29.95R
SEATTLE, WA    PTSUNNY   47  42  83 S8        29.97R
TIJUANA, MEX   CLOUDY    57  48  72 SW5       30.04R

$$

STATION/POSITION TIME  TEMP    WIND        PRES    VSBY  WAVE
                       AIR SEA DIR/SP/G                  HT/PER
                 (UTC) (F)     (DEG/KT/KT) (MB)    (MI)  (FT/S)
POINT ARGUELLO B NOT AVBL
WEST SANTA BARBA 1600   55 55  280/  8/ 10 1015.9F         5/16
POINT CONCEPTION NOT AVBL
EAST SANTA BARBA NOT AVBL
SANTA MONICA BAY 1600   58 60  320/  8/ 10 1016.0R         4/ 7


USA.gov is the U.S. government's official web portal to all federal, state and local government web resources and services.